Regional Weather Roundup
Issued by NWS

Home | Current Version | Previous Version | Graphics & Text | Print | Product List | Glossary On
Versions: 1 2 3 4 5 6 7 8 9 10 11 12 13 14 15 16 17 18 19 20 21 22 23 24 25 26 27 28 29 30 31 32 33 34 35 36 37 38 39 40 41 42 43 44 45 46 47 48 49 50
000
ASUS45 KCYS 121810
RWRWY

WYOMING REGIONAL WEATHER ROUNDUP
NATIONAL WEATHER SERVICE CHEYENNE WY
1100 AM MST FRI FEB 12 2016

NOTE:  "FAIR" INDICATES FEW OR NO CLOUDS BELOW 12,000 FEET
WITH NO SIGNIFICANT WEATHER AND/OR OBSTRUCTIONS TO VISIBILITY.

WYZ001-121900-
YELLOWSTONE NATIONAL PARK

CITY           SKY/WX    TMP DP  RH WIND       PRES   REMARKS
LK YELLOWSTONE   N/A     35  25  66 CALM      30.35F
6HR MIN TEMP:  27; 6HR MAX TEMP:  35;

W YELLOWSTONE  NOT AVBL

$$
WYZ002>013-054>058-071-098>099-121900-
NORTHERN WYOMING

CITY           SKY/WX    TMP DP  RH WIND       PRES   REMARKS
JACKSON        NOT AVBL
CODY           FAIR      46  27  46 CALM      30.23F
GREYBULL       CLOUDY    44  30  57 CALM      30.25S
6HR MIN TEMP:  34; 6HR MAX TEMP:  44;

WORLAND        FAIR      42  30  62 NW3       30.25S
6HR MIN TEMP:  30; 6HR MAX TEMP:  42;

SHERIDAN       PTSUNNY   36  30  80 N3        30.26F
6HR MIN TEMP:  31; 6HR MAX TEMP:  37;

BUFFALO        CLOUDY    38  30  73 SE9       30.27F WCI  31
6HR MIN TEMP:  32; 6HR MAX TEMP:  38;

GILLETTE       CLOUDY    31  28  89 SE8       30.31F WCI  23
6HR MIN TEMP:  26; 6HR MAX TEMP:  31;

HULETT         CLOUDY    34  27  75 CALM      30.33F
NEWCASTLE      CLOUDY    30  30 100 SE10      30.36S WCI  21

$$
WYZ014>020-022>026-101>103-121900-
CENTRAL WYOMING

CITY           SKY/WX    TMP DP  RH WIND       PRES   REMARKS
BIG PINEY      FAIR      34  25  69 E5        30.37S WCI  30
6HR MIN TEMP:  17; 6HR MAX TEMP:  34;

PINEDALE         N/A     36  27  69 W3        30.37S
DUBOIS         FAIR      48  18  29 NW17G25   30.26S
LANDER         FAIR      37  27  67 S5        30.24F WCI  33
6HR MIN TEMP:  26; 6HR MAX TEMP:  39;

RIVERTON       FAIR      38  28  67 CALM      30.26F
6HR MIN TEMP:  26; 6HR MAX TEMP:  38;

CASPER         CLOUDY    39  27  62 NW3       30.29S
6HR MIN TEMP:  31; 6HR MAX TEMP:  39;

DOUGLAS        FAIR      43  28  55 E6        30.31F
6HR MIN TEMP:  30; 6HR MAX TEMP:  44;


$$
WYZ021-027>030-104>119-121900-
SOUTHERN WYOMING

CITY           SKY/WX    TMP DP  RH WIND       PRES   REMARKS
EVANSTON       FAIR      38  16  40 S5        30.38S WCI  34
6HR MIN TEMP:  31; 6HR MAX TEMP:  38;

KEMMERER       FAIR      36  18  48 N8        30.38S WCI  29
FORT BRIDGER   CLEAR     43  23  45 W3        30.40S
ROCK SPRINGS   FAIR      41  21  44 W3        30.37S
6HR MIN TEMP:  29; 6HR MAX TEMP:  41;

DIXON          FAIR      34  23  65 CALM      30.44S
RAWLINS        FAIR      41  21  44 SW16      30.34S
6HR MIN TEMP:  34; 6HR MAX TEMP:  41;

SARATOGA       CLOUDY    45  23  42 SE7       30.36F
LARAMIE        PTSUNNY   42  27  55 NE7       30.31S
6HR MIN TEMP:  35; 6HR MAX TEMP:  44;

CHEYENNE       CLOUDY    46  26  45 SE3       30.31F
6HR MIN TEMP:  33; 6HR MAX TEMP:  46;

TORRINGTON     FAIR      44  30  57 E8        30.33S
6HR MIN TEMP:  30; 6HR MAX TEMP:  44;

PINE BLUFFS    CLOUDY    45  30  57 NE5       30.33S

$$



USA.gov is the U.S. government's official web portal to all federal, state and local government web resources and services.